This is the latest recevied weather packets stored in our database for station/object KA1JKB. If no packets are shown the sender has not sent any weather packets the latest 10 day(s).
| Time | Temp. | Humidity | Pressure | Rain* | Wind** | Luminosity | Snow |
|---|---|---|---|---|---|---|---|
| 1777442799 | 6.67° C | 99% | 1010.8 hPa | 0 mm | - | 0 W/m² | - |
| 1777442494 | 6.67° C | 99% | 1010.2 hPa | 0 mm | - | 0 W/m² | - |
| 1777442190 | 6.67° C | 99% | 1010.3 hPa | 0 mm | - | 0 W/m² | - |
| 1777441887 | 6.67° C | 99% | 1010.5 hPa | 0 mm | - | 0 W/m² | - |
| 1777441582 | 6.11° C | 99% | 1010.6 hPa | 0 mm | - | 0 W/m² | - |
| 1777441279 | 6.67° C | 99% | 1010.6 hPa | 0 mm | - | 0 W/m² | - |
| 1777440979 | 7.22° C | 99% | 1010.4 hPa | 0 mm | - | 0 W/m² | - |
| 1777440675 | 6.67° C | 99% | 1010.4 hPa | 0 mm | - | 0 W/m² | - |
| 1777440371 | 6.67° C | 99% | 1010.6 hPa | 0 mm | - | 0 W/m² | - |
| 1777440068 | 6.67° C | 99% | 1010.6 hPa | 0 mm | - | 0 W/m² | - |
| 1777439763 | 6.67° C | 99% | 1010.7 hPa | 0 mm | - | 0 W/m² | - |
| 1777439459 | 6.67° C | 99% | 1010.7 hPa | 0 mm | - | 0 W/m² | - |
| 1777439154 | 6.67° C | 99% | 1011 hPa | 0 mm | - | 0 W/m² | - |
| 1777438852 | 6.67° C | 99% | 1010.8 hPa | 0 mm | - | 0 W/m² | - |
| 1777438548 | 6.67° C | 99% | 1011 hPa | 0 mm | - | 0 W/m² | - |
| 1777438245 | 6.11° C | 99% | 1010.7 hPa | 0 mm | - | 0 W/m² | - |
| 1777437940 | 5.56° C | 99% | 1010.7 hPa | 0 mm | - | 0 W/m² | - |
| 1777437637 | 5.56° C | 99% | 1010.6 hPa | 0 mm | - | 0 W/m² | - |
| 1777437334 | 6.11° C | 99% | 1010.5 hPa | 0 mm | - | 0 W/m² | - |
| 1777437029 | 6.11° C | 99% | 1010.6 hPa | 0 mm | - | 0 W/m² | - |
| 1777436726 | 6.11° C | 99% | 1010.6 hPa | 0 mm | - | 0 W/m² | - |
| 1777436423 | 6.11° C | 99% | 1010.6 hPa | 0 mm | - | 0 W/m² | - |
| 1777436119 | 6.11° C | 99% | 1010.6 hPa | 0 mm | - | 0 W/m² | - |
| 1777435816 | 5.56° C | 99% | 1010.7 hPa | 0 mm | - | 0 W/m² | - |
| 1777435512 | 6.11° C | 99% | 1010.8 hPa | 0 mm | - | 0 W/m² | - |
* Rain latest hour (hover to see other rain measurements)
** Current wind speed in m/s (hover to see current wind gust speed)